Location: Bosmont
(49.7318°N, 3.8587°E)
Time: 00:26:34
(UTC+00:00)

Cosmos 1814 Rocket - Pass Details

Date: 08 February 2023
Orbit: 744 x 786 km, 74.1° (Epoch: 01 April)

Event Time Altitude Azimuth Distance (km) Brightness Sun altitude
Rises 18:31:46 0° 335° (NNW) 3,288 7.6 -16.6°
Reaches altitude 10° 18:34:11 10° 333° (NNW) 2,357 6.8 -17.0°
Maximum altitude 18:39:32 74° 250° (WSW) 823 4.2 -17.9°
Drops below altitude 10° 18:44:50 10° 166° (SSE) 2,338 6.4 -18.7°
Sets 18:47:13 0° 165° (SSE) 3,259 7.1 -19.1°
